Location: München
(48.1351°N, 11.5820°E)
Time: 19:19:56
(UTC+02:00)

ISS - Pass Details

Date: 23 May 2021
Orbit: 417 x 422 km, 51.6° (Epoch: 16 June)

Event Time Altitude Azimuth Distance (km) Brightness Sun altitude
Rises 22:09:35 0° 282° (WNW) 2,364 1.0 -10.1°
Reaches altitude 10° 22:11:45 10° 289° (WNW) 1,501 0.1 -10.4°
Maximum altitude 22:15:00 44° 3° (N) 593 -2.6 -10.7°
Drops below altitude 10° 22:18:15 10° 77° (ENE) 1,503 -1.2 -11.1°
Enters shadow 22:19:30 - 82° (E) 2,003 -0.6 -11.2°
